Location: Wildcat Hills Observatory
(41.6350°N, 103.6812°W)
Time: 01:35:49
(UTC-06:00)

Cosmos 1634 Rocket - Visible Passes

Search period start: 26 May 2015 00:00
Search period end: 05 June 2015 00:00
Orbit: 959 x 993 km, 82.9° (Epoch: 24 May)

Date Brightness Start Highest point End Pass type
(mag) Time Alt. Az. Time Alt. Az. Time Alt. Az.
26 May 6.1 04:19:31 10° SE 04:24:25 26° E 04:29:29 10° NNE visible
27 May 5.0 04:43:57 10° SSE 04:49:48 48° E 04:55:42 10° NNE visible
28 May 6.7 03:28:51 10° E 03:30:43 12° E 03:33:00 10° ENE visible
29 May 6.2 03:51:23 10° SE 03:55:55 23° E 04:00:40 10° NE visible
30 May 5.2 04:15:35 10° SSE 04:21:15 41° E 04:27:01 10° NNE visible
31 May 4.2 04:40:36 10° S 04:46:43 76° E 04:52:54 10° N visible
01 Jun 6.3 03:23:19 10° SE 03:27:25 20° E 03:31:47 10° NE visible
02 Jun 5.4 03:47:16 10° SSE 03:52:44 36° E 03:58:19 10° NNE visible
03 Jun 4.4 04:12:06 10° S 04:18:10 66° E 04:24:17 10° NNE visible
04 Jun 6.3 02:55:22 10° ESE 02:58:56 17° E 03:02:49 10° NE visible
04 Jun 4.0 04:37:36 10° SSW 04:43:44 70° W 04:49:55 10° N visible
